START_TIME,STEP,MOV.,E45,t_acc.,ALAR?,t_acc.,A12,t_acc.,A24,t_acc.
1979-07-01 06:00:27.280 ,0,1,1.,4.8,144.,4.8,0.,4.8,0.,4.8
1979-07-01 06:00:32.080 ,0,1,1.,4.8,144.,4.8,0.,4.8,1.,4.8
1979-07-01 06:00:36.880 ,0,1,0.,4.8,140.,4.8,0.,4.8,0.,4.8
1979-07-01 06:00:41.680 ,0,1,2.,4.8,156.,4.8,0.,4.8,0.,4.8
1979-07-01 06:00:46.480 ,0,1,2.,4.8,156.,4.8,0.,4.8,0.,4.8
1979-07-01 06:00:51.280 ,4,1,0.,4.8,148.,4.8,0.,4.8,0.,4.8
1979-07-01 06:00:56.080 ,4,1,1.,4.8,160.,4.8,0.,4.8,0.,4.8
1979-07-01 06:01:00.880 ,4,1,0.,4.8,144.,4.8,0.,4.8,0.,4.8
1979-07-01 06:01:05.680 ,4,1,0.,4.8,156.,4.8,0.,4.8,0.,4.8
1979-07-01 06:01:10.480 ,4,1,1.,4.8,156.,4.8,0.,4.8,0.,4.8
1979-07-01 06:01:15.280 ,7,1,2.,4.8,132.,4.8,0.,4.8,0.,4.8
1979-07-01 06:01:20.080 ,7,1,2.,4.8,148.,4.8,0.,4.8,0.,4.8
1979-07-01 06:01:24.880 ,7,1,2.,4.8,140.,4.8,0.,4.8,0.,4.8
1979-07-01 06:01:29.680 ,7,1,2.,4.8,160.,4.8,0.,4.8,0.,4.8
1979-07-01 06:01:34.480 ,7,1,0.,4.8,152.,4.8,0.,4.8,0.,4.8
1979-07-01 06:01:39.280 ,3,1,0.,4.8,152.,4.8,0.,4.8,0.,4.8
1979-07-01 06:01:44.080 ,3,1,2.,4.8,140.,4.8,0.,4.8,0.,4.8
1979-07-01 06:01:48.880 ,3,1,2.,4.8,164.,4.8,0.,4.8,0.,4.8
1979-07-01 06:01:53.680 ,3,1,2.,4.8,144.,4.8,0.,4.8,0.,4.8
1979-07-01 06:01:58.480 ,3,1,2.,4.8,132.,4.8,0.,4.8,0.,4.8
1979-07-01 06:02:03.280 ,0,1,1.,4.8,140.,4.8,0.,4.8,0.,4.8
1979-07-01 06:02:08.080 ,0,1,0.,4.8,132.,4.8,0.,4.8,0.,4.8
1979-07-01 06:02:12.880 ,0,1,4.,4.8,136.,4.8,0.,4.8,0.,4.8
1979-07-01 06:02:17.680 ,0,1,1.,4.8,156.,4.8,0.,4.8,0.,4.8
1979-07-01 06:02:22.480 ,0,1,1.,4.8,144.,4.8,0.,4.8,0.,4.8
1979-07-01 06:02:27.280 ,4,1,0.,4.8,148.,4.8,0.,4.8,0.,4.8
1979-07-01 06:02:32.080 ,4,1,1.,4.8,144.,4.8,0.,4.8,0.,4.8
1979-07-01 06:02:36.880 ,4,1,3.,4.8,140.,4.8,0.,4.8,0.,4.8
1979-07-01 06:02:41.680 ,4,1,1.,4.8,144.,4.8,0.,4.8,0.,4.8
1979-07-01 06:02:46.480 ,4,1,3.,4.8,152.,4.8,0.,4.8,0.,4.8
1979-07-01 06:02:51.280 ,7,1,3.,4.8,144.,4.8,0.,4.8,0.,4.8
1979-07-01 06:02:56.080 ,7,1,3.,4.8,140.,4.8,0.,4.8,0.,4.8
1979-07-01 06:03:00.880 ,7,1,1.,4.8,136.,4.8,0.,4.8,0.,4.8
1979-07-01 06:03:05.680 ,7,1,0.,4.8,118.,4.8,0.,4.8,0.,4.8
1979-07-01 06:03:10.480 ,7,1,0.,4.8,164.,4.8,0.,4.8,0.,4.8
1979-07-01 06:03:15.280 ,3,1,1.,4.8,124.,4.8,0.,4.8,0.,4.8
1979-07-01 06:03:20.080 ,3,1,4.,4.8,144.,4.8,0.,4.8,0.,4.8
1979-07-01 06:03:24.880 ,3,1,0.,4.8,124.,4.8,0.,4.8,0.,4.8
1979-07-01 06:03:29.680 ,3,1,6.,4.8,148.,4.8,0.,4.8,0.,4.8
1979-07-01 06:03:34.480 ,3,1,0.,4.8,126.,4.8,0.,4.8,0.,4.8
1979-07-01 06:03:39.280 ,0,1,1.,4.8,156.,4.8,0.,4.8,0.,4.8
1979-07-01 06:03:44.080 ,0,1,1.,4.8,140.,4.8,0.,4.8,0.,4.8
1979-07-01 06:03:48.880 ,0,1,2.,4.8,148.,4.8,0.,4.8,0.,4.8
1979-07-01 06:03:53.680 ,0,1,2.,4.8,160.,4.8,0.,4.8,0.,4.8
1979-07-01 06:03:58.480 ,0,1,1.,4.8,152.,4.8,0.,4.8,0.,4.8
1979-07-01 06:04:03.280 ,4,1,2.,4.8,172.,4.8,0.,4.8,0.,4.8
1979-07-01 06:04:08.080 ,4,1,3.,4.8,168.,4.8,0.,4.8,0.,4.8
1979-07-01 06:04:12.880 ,4,1,1.,4.8,156.,4.8,0.,4.8,0.,4.8
1979-07-01 06:04:17.680 ,4,1,2.,4.8,128.,4.8,0.,4.8,0.,4.8
1979-07-01 06:04:22.480 ,4,1,3.,4.8,140.,4.8,0.,4.8,0.,4.8
1979-07-01 06:04:27.280 ,7,1,2.,4.8,152.,4.8,0.,4.8,0.,4.8
1979-07-01 06:04:32.080 ,7,1,1.,4.8,148.,4.8,0.,4.8,0.,4.8
1979-07-01 06:04:36.880 ,7,1,1.,4.8,152.,4.8,0.,4.8,0.,4.8
1979-07-01 06:04:41.680 ,7,1,1.,4.8,120.,4.8,0.,4.8,0.,4.8
1979-07-01 06:04:46.480 ,7,1,3.,4.8,152.,4.8,0.,4.8,0.,4.8
1979-07-01 06:04:51.280 ,3,1,4.,4.8,144.,4.8,0.,4.8,0.,4.8
1979-07-01 06:04:56.080 ,3,1,2.,4.8,148.,4.8,0.,4.8,0.,4.8
1979-07-01 06:05:00.880 ,3,1,0.,4.8,160.,4.8,0.,4.8,0.,4.8
1979-07-01 06:05:05.680 ,3,1,1.,4.8,160.,4.8,0.,4.8,0.,4.8
1979-07-01 06:05:10.480 ,3,1,1.,4.8,156.,4.8,0.,4.8,0.,4.8
1979-07-01 06:05:15.280 ,0,1,1.,4.8,136.,4.8,0.,4.8,0.,4.8
1979-07-01 06:05:20.080 ,0,1,3.,4.8,168.,4.8,0.,4.8,0.,4.8
1979-07-01 06:05:24.880 ,0,1,0.,4.8,156.,4.8,0.,4.8,0.,4.8
1979-07-01 06:05:29.680 ,0,1,0.,4.8,140.,4.8,0.,4.8,0.,4.8
1979-07-01 06:05:34.480 ,0,1,1.,4.8,136.,4.8,0.,4.8,0.,4.8
1979-07-01 06:05:39.280 ,0,0,4.,4.8,192.,4.8,0.,4.8,0.,4.8
1979-07-01 06:05:44.080 ,0,0,2.,4.8,156.,4.8,0.,4.8,0.,4.8
1979-07-01 06:05:48.880 ,0,0,0.,4.8,144.,4.8,0.,4.8,0.,4.8
1979-07-01 06:05:53.680 ,0,0,2.,4.8,144.,4.8,0.,4.8,0.,4.8
1979-07-01 06:05:58.480 ,0,0,1.,4.8,136.,4.8,0.,4.8,0.,4.8
1979-07-01 06:06:03.280 ,0,0,2.,4.8,140.,4.8,0.,4.8,0.,4.8
1979-07-01 06:06:08.080 ,0,0,2.,4.8,168.,4.8,0.,4.8,0.,4.8
1979-07-01 06:06:12.880 ,0,0,0.,4.8,164.,4.8,0.,4.8,0.,4.8
1979-07-01 06:06:17.680 ,0,0,2.,4.8,128.,4.8,0.,4.8,0.,4.8
1979-07-01 06:06:22.480 ,0,0,3.,4.8,156.,4.8,0.,4.8,0.,4.8
1979-07-01 06:06:27.280 ,5,0,0.,4.8,148.,4.8,0.,4.8,0.,4.8
1979-07-01 06:06:32.080 ,5,0,2.,4.8,136.,4.8,0.,4.8,0.,4.8
1979-07-01 06:06:36.880 ,5,0,2.,4.8,152.,4.8,0.,4.8,0.,4.8
1979-07-01 06:06:41.680 ,5,0,0.,4.8,116.,4.8,0.,4.8,0.,4.8
1979-07-01 06:06:46.480 ,5,0,1.,4.8,140.,4.8,0.,4.8,1.,4.8
1979-07-01 06:06:51.280 ,5,0,1.,4.8,148.,4.8,0.,4.8,0.,4.8
1979-07-01 06:06:56.080 ,5,0,0.,4.8,152.,4.8,0.,4.8,0.,4.8
1979-07-01 06:07:00.880 ,5,0,7.,4.8,172.,4.8,0.,4.8,0.,4.8
1979-07-01 06:07:05.680 ,5,0,2.,4.8,144.,4.8,0.,4.8,0.,4.8
1979-07-01 06:07:10.480 ,5,0,3.,4.8,160.,4.8,0.,4.8,0.,4.8
1979-07-01 06:07:15.280 ,4,0,3.,4.8,160.,4.8,0.,4.8,0.,4.8
1979-07-01 06:07:20.080 ,4,0,0.,4.8,152.,4.8,0.,4.8,0.,4.8
1979-07-01 06:07:24.880 ,4,0,2.,4.8,144.,4.8,0.,4.8,0.,4.8
1979-07-01 06:07:29.680 ,4,0,1.,4.8,148.,4.8,0.,4.8,0.,4.8
1979-07-01 06:07:34.480 ,4,0,7.,4.8,152.,4.8,0.,4.8,0.,4.8
1979-07-01 06:07:39.280 ,4,0,1.,4.8,156.,4.8,0.,4.8,0.,4.8
1979-07-01 06:07:44.080 ,4,0,1.,4.8,176.,4.8,0.,4.8,0.,4.8
1979-07-01 06:07:48.880 ,4,0,1.,4.8,140.,4.8,0.,4.8,0.,4.8
1979-07-01 06:07:53.680 ,4,0,2.,4.8,148.,4.8,0.,4.8,0.,4.8
1979-07-01 06:07:58.480 ,4,0,6.,4.8,144.,4.8,0.,4.8,0.,4.8
1979-07-01 06:08:03.280 ,3,0,0.,4.8,164.,4.8,0.,4.8,0.,4.8
1979-07-01 06:08:08.080 ,3,0,1.,4.8,152.,4.8,0.,4.8,0.,4.8
1979-07-01 06:08:12.880 ,3,0,2.,4.8,152.,4.8,0.,4.8,0.,4.8
1979-07-01 06:08:17.680 ,3,0,1.,4.8,148.,4.8,0.,4.8,0.,4.8
1979-07-01 06:08:22.480 ,3,0,2.,4.8,152.,4.8,0.,4.8,0.,4.8
1979-07-01 06:08:27.280 ,3,0,2.,4.8,152.,4.8,0.,4.8,0.,4.8
1979-07-01 06:08:32.080 ,3,0,3.,4.8,168.,4.8,0.,4.8,0.,4.8
1979-07-01 06:08:36.880 ,3,0,2.,4.8,144.,4.8,0.,4.8,0.,4.8
1979-07-01 06:08:41.680 ,3,0,1.,4.8,152.,4.8,0.,4.8,0.,4.8
1979-07-01 06:08:46.480 ,3,0,1.,4.8,136.,4.8,0.,4.8,0.,4.8
1979-07-01 06:08:51.280 ,2,0,2.,4.8,136.,4.8,0.,4.8,0.,4.8
1979-07-01 06:08:56.080 ,2,0,1.,4.8,156.,4.8,0.,4.8,0.,4.8
1979-07-01 06:09:00.880 ,2,0,0.,4.8,132.,4.8,0.,4.8,0.,4.8
1979-07-01 06:09:05.680 ,2,0,1.,4.8,172.,4.8,0.,4.8,0.,4.8
1979-07-01 06:09:10.480 ,2,0,1.,4.8,148.,4.8,0.,4.8,0.,4.8
1979-07-01 06:09:15.280 ,2,0,2.,4.8,140.,4.8,0.,4.8,0.,4.8
1979-07-01 06:09:20.080 ,2,0,1.,4.8,140.,4.8,0.,4.8,0.,4.8
1979-07-01 06:09:24.880 ,2,0,2.,4.8,160.,4.8,0.,4.8,0.,4.8
1979-07-01 06:09:29.680 ,2,0,1.,4.8,144.,4.8,0.,4.8,0.,4.8
1979-07-01 06:09:34.480 ,2,0,2.,4.8,148.,4.8,0.,4.8,0.,4.8
1979-07-01 06:09:39.280 ,1,0,2.,4.8,168.,4.8,0.,4.8,0.,4.8
1979-07-01 06:09:44.080 ,1,0,1.,4.8,144.,4.8,0.,4.8,0.,4.8
1979-07-01 06:09:48.880 ,1,0,0.,4.8,164.,4.8,0.,4.8,0.,4.8
1979-07-01 06:09:53.680 ,1,0,1.,4.8,140.,4.8,0.,4.8,0.,4.8
1979-07-01 06:09:58.480 ,1,0,0.,4.8,168.,4.8,0.,4.8,0.,4.8
1979-07-01 06:10:03.280 ,1,0,1.,4.8,140.,4.8,0.,4.8,0.,4.8
1979-07-01 06:10:08.080 ,1,0,2.,4.8,152.,4.8,0.,4.8,0.,4.8
1979-07-01 06:10:12.880 ,1,0,0.,4.8,132.,4.8,0.,4.8,0.,4.8
1979-07-01 06:10:17.680 ,1,0,4.,4.8,128.,4.8,0.,4.8,0.,4.8
1979-07-01 06:10:22.480 ,1,0,2.,4.8,164.,4.8,0.,4.8,0.,4.8
1979-07-01 06:10:27.280 ,0,0,0.,4.8,140.,4.8,0.,4.8,0.,4.8
1979-07-01 06:10:32.080 ,0,0,2.,4.8,132.,4.8,0.,4.8,0.,4.8
1979-07-01 06:10:36.880 ,0,0,1.,4.8,160.,4.8,0.,4.8,0.,4.8
1979-07-01 06:10:41.680 ,0,0,1.,4.8,148.,4.8,0.,4.8,0.,4.8
1979-07-01 06:10:46.480 ,0,0,2.,4.8,136.,4.8,0.,4.8,0.,4.8
1979-07-01 06:10:51.280 ,0,0,1.,4.8,136.,4.8,0.,4.8,0.,4.8
1979-07-01 06:10:56.080 ,0,0,1.,4.8,156.,4.8,0.,4.8,0.,4.8
1979-07-01 06:11:00.880 ,0,0,1.,4.8,156.,4.8,0.,4.8,0.,4.8
1979-07-01 06:11:05.680 ,0,0,3.,4.8,128.,4.8,0.,4.8,0.,4.8
1979-07-01 06:11:10.480 ,0,0,0.,4.8,152.,4.8,0.,4.8,0.,4.8
1979-07-01 06:11:15.280 ,0,0,1.,4.8,156.,4.8,0.,4.8,0.,4.8
1979-07-01 06:11:20.080 ,0,0,0.,4.8,156.,4.8,0.,4.8,0.,4.8
1979-07-01 06:11:24.880 ,0,0,3.,4.8,148.,4.8,0.,4.8,0.,4.8
1979-07-01 06:11:29.680 ,0,0,2.,4.8,136.,4.8,0.,4.8,0.,4.8
1979-07-01 06:11:34.480 ,0,0,2.,4.8,156.,4.8,0.,4.8,0.,4.8
1979-07-01 06:11:39.280 ,0,0,1.,4.8,144.,4.8,0.,4.8,0.,4.8
1979-07-01 06:11:44.080 ,0,0,1.,4.8,136.,4.8,0.,4.8,0.,4.8
1979-07-01 06:11:48.880 ,0,0,2.,4.8,144.,4.8,0.,4.8,0.,4.8
1979-07-01 06:11:53.680 ,0,0,1.,4.8,172.,4.8,0.,4.8,0.,4.8
1979-07-01 06:11:58.480 ,0,0,1.,4.8,140.,4.8,0.,4.8,0.,4.8
1979-07-01 06:12:03.280 ,1,0,0.,4.8,148.,4.8,0.,4.8,0.,4.8
1979-07-01 06:12:08.080 ,1,0,2.,4.8,176.,4.8,0.,4.8,0.,4.8
1979-07-01 06:12:12.880 ,1,0,4.,4.8,148.,4.8,0.,4.8,0.,4.8
1979-07-01 06:12:17.680 ,1,0,0.,4.8,140.,4.8,0.,4.8,0.,4.8
1979-07-01 06:12:22.480 ,1,0,1.,4.8,156.,4.8,0.,4.8,0.,4.8
1979-07-01 06:12:27.280 ,1,0,2.,4.8,152.,4.8,0.,4.8,0.,4.8
1979-07-01 06:12:32.080 ,1,0,1.,4.8,160.,4.8,0.,4.8,0.,4.8
1979-07-01 06:12:36.880 ,1,0,1.,4.8,156.,4.8,0.,4.8,0.,4.8
1979-07-01 06:12:41.680 ,1,0,3.,4.8,152.,4.8,0.,4.8,0.,4.8
1979-07-01 06:12:46.480 ,1,0,1.,4.8,156.,4.8,0.,4.8,0.,4.8
1979-07-01 06:12:51.280 ,2,0,2.,4.8,160.,4.8,0.,4.8,0.,4.8
1979-07-01 06:12:56.080 ,2,0,3.,4.8,144.,4.8,1.,4.8,0.,4.8
1979-07-01 06:13:00.880 ,2,0,1.,4.8,136.,4.8,0.,4.8,0.,4.8
1979-07-01 06:13:05.680 ,2,0,0.,4.8,140.,4.8,0.,4.8,0.,4.8
1979-07-01 06:13:10.480 ,2,0,1.,4.8,148.,4.8,0.,4.8,0.,4.8
1979-07-01 06:13:15.280 ,2,0,2.,4.8,144.,4.8,0.,4.8,0.,4.8
1979-07-01 06:13:20.080 ,2,0,0.,4.8,176.,4.8,0.,4.8,0.,4.8
1979-07-01 06:13:24.880 ,2,0,3.,4.8,148.,4.8,0.,4.8,0.,4.8
1979-07-01 06:13:29.680 ,2,0,1.,4.8,168.,4.8,0.,4.8,0.,4.8
1979-07-01 06:13:34.480 ,2,0,1.,4.8,148.,4.8,0.,4.8,0.,4.8
1979-07-01 06:13:39.280 ,3,0,3.,4.8,144.,4.8,0.,4.8,0.,4.8
1979-07-01 06:13:44.080 ,3,0,0.,4.8,160.,4.8,0.,4.8,0.,4.8
1979-07-01 06:13:48.880 ,3,0,3.,4.8,164.,4.8,0.,4.8,0.,4.8
1979-07-01 06:13:53.680 ,3,0,1.,4.8,140.,4.8,0.,4.8,0.,4.8
1979-07-01 06:13:58.480 ,3,0,1.,4.8,164.,4.8,0.,4.8,0.,4.8
1979-07-01 06:14:03.280 ,3,0,1.,4.8,128.,4.8,0.,4.8,0.,4.8
1979-07-01 06:14:08.080 ,3,0,1.,4.8,164.,4.8,0.,4.8,0.,4.8
1979-07-01 06:14:12.880 ,3,0,1.,4.8,164.,4.8,0.,4.8,0.,4.8
1979-07-01 06:14:17.680 ,3,0,0.,4.8,156.,4.8,0.,4.8,0.,4.8
1979-07-01 06:14:22.480 ,3,0,1.,4.8,132.,4.8,0.,4.8,0.,4.8
1979-07-01 06:14:27.280 ,4,0,1.,4.8,152.,4.8,0.,4.8,0.,4.8
1979-07-01 06:14:32.080 ,4,0,2.,4.8,152.,4.8,0.,4.8,0.,4.8
1979-07-01 06:14:36.880 ,4,0,3.,4.8,152.,4.8,0.,4.8,0.,4.8
1979-07-01 06:14:41.680 ,4,0,3.,4.8,168.,4.8,0.,4.8,0.,4.8
1979-07-01 06:14:46.480 ,4,0,2.,4.8,148.,4.8,0.,4.8,0.,4.8
1979-07-01 06:14:51.280 ,4,0,3.,4.8,156.,4.8,0.,4.8,0.,4.8
1979-07-01 06:14:56.080 ,4,0,2.,4.8,160.,4.8,0.,4.8,0.,4.8
1979-07-01 06:15:00.880 ,4,0,4.,4.8,140.,4.8,0.,4.8,0.,4.8
1979-07-01 06:15:05.680 ,4,0,3.,4.8,140.,4.8,0.,4.8,0.,4.8
1979-07-01 06:15:10.480 ,4,0,1.,4.8,188.,4.8,0.,4.8,0.,4.8
1979-07-01 06:15:15.280 ,5,0,2.,4.8,160.,4.8,0.,4.8,0.,4.8
1979-07-01 06:15:20.080 ,5,0,2.,4.8,140.,4.8,0.,4.8,0.,4.8
1979-07-01 06:15:24.880 ,5,0,1.,4.8,156.,4.8,0.,4.8,0.,4.8
1979-07-01 06:15:29.680 ,5,0,1.,4.8,164.,4.8,0.,4.8,0.,4.8
1979-07-01 06:15:34.480 ,5,0,2.,4.8,152.,4.8,0.,4.8,0.,4.8
1979-07-01 06:15:39.280 ,5,0,3.,4.8,136.,4.8,0.,4.8,0.,4.8
1979-07-01 06:15:44.080 ,5,0,3.,4.8,160.,4.8,0.,4.8,0.,4.8
1979-07-01 06:15:48.880 ,5,0,1.,4.8,156.,4.8,0.,4.8,0.,4.8
1979-07-01 06:15:53.680 ,5,0,0.,4.8,164.,4.8,0.,4.8,0.,4.8
1979-07-01 06:15:58.480 ,5,0,3.,4.8,144.,4.8,0.,4.8,0.,4.8
1979-07-01 06:16:03.280 ,6,0,1.,4.8,176.,4.8,0.,4.8,0.,4.8
1979-07-01 06:16:08.080 ,6,0,0.,4.8,148.,4.8,0.,4.8,0.,4.8
1979-07-01 06:16:12.880 ,6,0,0.,4.8,144.,4.8,0.,4.8,0.,4.8
1979-07-01 06:16:17.680 ,6,0,2.,4.8,148.,4.8,0.,4.8,0.,4.8
1979-07-01 06:16:22.480 ,6,0,2.,4.8,168.,4.8,0.,4.8,0.,4.8
1979-07-01 06:16:27.280 ,6,0,2.,4.8,160.,4.8,0.,4.8,0.,4.8
1979-07-01 06:16:32.080 ,6,0,0.,4.8,148.,4.8,0.,4.8,0.,4.8
1979-07-01 06:16:36.880 ,6,0,0.,4.8,144.,4.8,0.,4.8,0.,4.8
1979-07-01 06:16:41.680 ,6,0,4.,4.8,122.,4.8,0.,4.8,0.,4.8
1979-07-01 06:16:46.480 ,6,0,2.,4.8,140.,4.8,0.,4.8,0.,4.8
1979-07-01 06:16:51.280 ,7,0,0.,4.8,156.,4.8,0.,4.8,0.,4.8
1979-07-01 06:16:56.080 ,7,0,3.,4.8,168.,4.8,0.,4.8,0.,4.8
1979-07-01 06:17:00.880 ,7,0,3.,4.8,164.,4.8,0.,4.8,0.,4.8
1979-07-01 06:17:05.680 ,7,0,1.,4.8,136.,4.8,0.,4.8,0.,4.8
1979-07-01 06:17:10.480 ,7,0,1.,4.8,172.,4.8,0.,4.8,0.,4.8
1979-07-01 06:17:15.280 ,7,0,1.,4.8,156.,4.8,0.,4.8,0.,4.8
1979-07-01 06:17:20.080 ,7,0,0.,4.8,156.,4.8,0.,4.8,0.,4.8
1979-07-01 06:17:24.880 ,7,0,1.,4.8,160.,4.8,0.,4.8,0.,4.8
1979-07-01 06:17:29.680 ,7,0,1.,4.8,172.,4.8,0.,4.8,0.,4.8
1979-07-01 06:17:34.480 ,7,0,1.,4.8,136.,4.8,0.,4.8,0.,4.8
1979-07-01 06:17:39.280 ,7,0,0.,4.8,148.,4.8,0.,4.8,0.,4.8
1979-07-01 06:17:44.080 ,7,0,2.,4.8,136.,4.8,0.,4.8,0.,4.8
1979-07-01 06:17:48.880 ,7,0,1.,4.8,152.,4.8,0.,4.8,0.,4.8
1979-07-01 06:17:53.680 ,7,0,1.,4.8,140.,4.8,0.,4.8,0.,4.8
1979-07-01 06:17:58.480 ,7,0,2.,4.8,126.,4.8,0.,4.8,0.,4.8
1979-07-01 06:18:03.280 ,7,0,3.,4.8,160.,4.8,0.,4.8,0.,4.8
1979-07-01 06:18:08.080 ,7,0,0.,4.8,144.,4.8,0.,4.8,0.,4.8
1979-07-01 06:18:12.880 ,7,0,2.,4.8,148.,4.8,0.,4.8,0.,4.8
1979-07-01 06:18:17.680 ,7,0,0.,4.8,156.,4.8,0.,4.8,0.,4.8
1979-07-01 06:18:22.480 ,7,0,3.,4.8,168.,4.8,0.,4.8,0.,4.8
1979-07-01 06:18:27.280 ,6,0,1.,4.8,160.,4.8,0.,4.8,0.,4.8
1979-07-01 06:18:32.080 ,6,0,4.,4.8,148.,4.8,0.,4.8,0.,4.8
1979-07-01 06:18:36.880 ,6,0,2.,4.8,132.,4.8,0.,4.8,0.,4.8
1979-07-01 06:18:41.680 ,6,0,1.,4.8,136.,4.8,0.,4.8,0.,4.8
1979-07-01 06:18:46.480 ,6,0,0.,4.8,132.,4.8,0.,4.8,0.,4.8
1979-07-01 06:18:51.280 ,6,0,3.,4.8,148.,4.8,0.,4.8,1.,4.8
1979-07-01 06:18:56.080 ,6,0,0.,4.8,136.,4.8,0.,4.8,0.,4.8
1979-07-01 06:19:00.880 ,6,0,1.,4.8,164.,4.8,0.,4.8,0.,4.8
1979-07-01 06:19:05.680 ,6,0,1.,4.8,148.,4.8,0.,4.8,0.,4.8
1979-07-01 06:19:10.480 ,6,0,3.,4.8,148.,4.8,0.,4.8,0.,4.8
1979-07-01 06:19:15.280 ,5,0,2.,4.8,144.,4.8,0.,4.8,0.,4.8
1979-07-01 06:19:20.080 ,5,0,2.,4.8,156.,4.8,0.,4.8,0.,4.8
1979-07-01 06:19:24.880 ,5,0,1.,4.8,160.,4.8,0.,4.8,0.,4.8
1979-07-01 06:19:29.680 ,5,0,3.,4.8,140.,4.8,0.,4.8,0.,4.8
1979-07-01 06:19:34.480 ,5,0,1.,4.8,168.,4.8,0.,4.8,0.,4.8
1979-07-01 06:19:39.280 ,5,0,4.,4.8,148.,4.8,0.,4.8,0.,4.8
1979-07-01 06:19:44.080 ,5,0,2.,4.8,164.,4.8,0.,4.8,0.,4.8
1979-07-01 06:19:48.880 ,5,0,2.,4.8,160.,4.8,0.,4.8,0.,4.8
1979-07-01 06:19:53.680 ,5,0,3.,4.8,172.,4.8,0.,4.8,0.,4.8
1979-07-01 06:19:58.480 ,5,0,2.,4.8,160.,4.8,0.,4.8,0.,4.8
1979-07-01 06:20:03.280 ,4,0,2.,4.8,144.,4.8,0.,4.8,0.,4.8
1979-07-01 06:20:08.080 ,4,0,2.,4.8,156.,4.8,0.,4.8,0.,4.8
1979-07-01 06:20:12.880 ,4,0,2.,4.8,148.,4.8,0.,4.8,0.,4.8
1979-07-01 06:20:17.680 ,4,0,5.,4.8,144.,4.8,0.,4.8,0.,4.8
1979-07-01 06:20:22.480 ,4,0,1.,4.8,148.,4.8,0.,4.8,0.,4.8
1979-07-01 06:20:27.280 ,4,0,1.,4.8,160.,4.8,0.,4.8,0.,4.8
1979-07-01 06:20:32.080 ,4,0,0.,4.8,132.,4.8,0.,4.8,0.,4.8
1979-07-01 06:20:36.880 ,4,0,3.,4.8,148.,4.8,0.,4.8,0.,4.8
1979-07-01 06:20:41.680 ,4,0,0.,4.8,152.,4.8,0.,4.8,0.,4.8
1979-07-01 06:20:46.480 ,4,0,0.,4.8,156.,4.8,0.,4.8,0.,4.8
1979-07-01 06:20:51.280 ,3,0,2.,4.8,156.,4.8,0.,4.8,0.,4.8
1979-07-01 06:20:56.080 ,3,0,1.,4.8,118.,4.8,0.,4.8,0.,4.8
1979-07-01 06:21:00.880 ,3,0,1.,4.8,164.,4.8,0.,4.8,0.,4.8
1979-07-01 06:21:05.680 ,3,0,3.,4.8,140.,4.8,0.,4.8,0.,4.8
1979-07-01 06:21:10.480 ,3,0,1.,4.8,156.,4.8,0.,4.8,0.,4.8
1979-07-01 06:21:15.280 ,3,0,0.,4.8,152.,4.8,0.,4.8,0.,4.8
1979-07-01 06:21:20.080 ,3,0,2.,4.8,168.,4.8,0.,4.8,0.,4.8
1979-07-01 06:21:24.880 ,3,0,2.,4.8,168.,4.8,0.,4.8,0.,4.8
1979-07-01 06:21:29.680 ,3,0,0.,4.8,136.,4.8,0.,4.8,0.,4.8
1979-07-01 06:21:34.480 ,3,0,1.,4.8,136.,4.8,0.,4.8,0.,4.8
1979-07-01 06:21:39.280 ,2,0,2.,4.8,164.,4.8,0.,4.8,0.,4.8
1979-07-01 06:21:44.080 ,2,0,1.,4.8,148.,4.8,0.,4.8,0.,4.8
1979-07-01 06:21:48.880 ,2,0,2.,4.8,144.,4.8,0.,4.8,0.,4.8
1979-07-01 06:21:53.680 ,2,0,0.,4.8,148.,4.8,0.,4.8,0.,4.8
1979-07-01 06:21:58.480 ,2,0,1.,4.8,148.,4.8,0.,4.8,0.,4.8
1979-07-01 06:22:03.280 ,2,0,2.,4.8,156.,4.8,0.,4.8,0.,4.8
1979-07-01 06:22:08.080 ,2,0,0.,4.8,148.,4.8,0.,4.8,0.,4.8
1979-07-01 06:22:12.880 ,2,0,2.,4.8,156.,4.8,0.,4.8,0.,4.8
1979-07-01 06:22:17.680 ,2,0,1.,4.8,156.,4.8,0.,4.8,0.,4.8
1979-07-01 06:22:22.480 ,2,0,2.,4.8,126.,4.8,0.,4.8,0.,4.8
1979-07-01 06:22:27.280 ,1,0,5.,4.8,136.,4.8,0.,4.8,0.,4.8
1979-07-01 06:22:32.080 ,1,0,0.,4.8,128.,4.8,0.,4.8,0.,4.8
1979-07-01 06:22:36.880 ,1,0,3.,4.8,148.,4.8,0.,4.8,0.,4.8
1979-07-01 06:22:41.680 ,1,0,1.,4.8,160.,4.8,0.,4.8,0.,4.8
1979-07-01 06:22:46.480 ,1,0,0.,4.8,140.,4.8,0.,4.8,0.,4.8
1979-07-01 06:22:51.280 ,1,0,0.,4.8,122.,4.8,0.,4.8,0.,4.8
1979-07-01 06:22:56.080 ,1,0,1.,4.8,144.,4.8,0.,4.8,0.,4.8
1979-07-01 06:23:00.880 ,1,0,2.,4.8,164.,4.8,0.,4.8,0.,4.8
1979-07-01 06:23:05.680 ,1,0,3.,4.8,148.,4.8,0.,4.8,0.,4.8
1979-07-01 06:23:10.480 ,1,0,4.,4.8,140.,4.8,0.,4.8,0.,4.8
1979-07-01 06:23:15.280 ,0,0,4.,4.8,148.,4.8,0.,4.8,0.,4.8
1979-07-01 06:23:20.080 ,0,0,0.,4.8,148.,4.8,0.,4.8,0.,4.8
1979-07-01 06:23:24.880 ,0,0,2.,4.8,128.,4.8,0.,4.8,0.,4.8
1979-07-01 06:23:29.680 ,0,0,1.,4.8,152.,4.8,0.,4.8,0.,4.8
1979-07-01 06:23:34.480 ,0,0,1.,4.8,118.,4.8,0.,4.8,0.,4.8
1979-07-01 06:23:39.280 ,0,0,1.,4.8,152.,4.8,0.,4.8,0.,4.8
1979-07-01 06:23:44.080 ,0,0,0.,4.8,140.,4.8,0.,4.8,0.,4.8
1979-07-01 06:23:48.880 ,0,0,1.,4.8,156.,4.8,0.,4.8,0.,4.8
1979-07-01 06:23:53.680 ,0,0,1.,4.8,136.,4.8,0.,4.8,0.,4.8
1979-07-01 06:23:58.480 ,0,0,0.,4.8,140.,4.8,0.,4.8,0.,4.8
1979-07-01 06:24:03.280 ,0,0,1.,4.8,168.,4.8,0.,4.8,0.,4.8
1979-07-01 06:24:08.080 ,0,0,1.,4.8,136.,4.8,0.,4.8,0.,4.8
1979-07-01 06:24:12.880 ,0,0,2.,4.8,140.,4.8,0.,4.8,0.,4.8
1979-07-01 06:24:17.680 ,0,0,1.,4.8,156.,4.8,0.,4.8,0.,4.8
1979-07-01 06:24:22.480 ,0,0,2.,4.8,156.,4.8,0.,4.8,0.,4.8
1979-07-01 06:24:27.280 ,0,0,2.,4.8,168.,4.8,0.,4.8,0.,4.8
1979-07-01 06:24:32.080 ,0,0,2.,4.8,168.,4.8,0.,4.8,0.,4.8
1979-07-01 06:24:36.880 ,0,0,2.,4.8,160.,4.8,0.,4.8,0.,4.8
1979-07-01 06:24:41.680 ,0,0,2.,4.8,168.,4.8,0.,4.8,0.,4.8
1979-07-01 06:24:46.480 ,0,0,1.,4.8,120.,4.8,0.,4.8,0.,4.8
1979-07-01 06:24:51.280 ,1,0,1.,4.8,144.,4.8,0.,4.8,0.,4.8
1979-07-01 06:24:56.080 ,1,0,3.,4.8,152.,4.8,0.,4.8,0.,4.8
1979-07-01 06:25:00.880 ,1,0,0.,4.8,144.,4.8,0.,4.8,0.,4.8
1979-07-01 06:25:05.680 ,1,0,0.,4.8,144.,4.8,0.,4.8,0.,4.8
1979-07-01 06:25:10.480 ,1,0,0.,4.8,148.,4.8,0.,4.8,0.,4.8
1979-07-01 06:25:15.280 ,1,0,0.,4.8,152.,4.8,0.,4.8,0.,4.8
1979-07-01 06:25:20.080 ,1,0,2.,4.8,148.,4.8,0.,4.8,0.,4.8
1979-07-01 06:25:24.880 ,1,0,0.,4.8,140.,4.8,0.,4.8,0.,4.8
1979-07-01 06:25:29.680 ,1,0,1.,4.8,156.,4.8,0.,4.8,0.,4.8
1979-07-01 06:25:34.480 ,1,0,1.,4.8,164.,4.8,0.,4.8,0.,4.8
1979-07-01 06:25:39.280 ,2,0,1.,4.8,164.,4.8,0.,4.8,0.,4.8
1979-07-01 06:25:44.080 ,2,0,0.,4.8,148.,4.8,0.,4.8,0.,4.8
1979-07-01 06:25:48.880 ,2,0,0.,4.8,152.,4.8,0.,4.8,0.,4.8
1979-07-01 06:25:53.680 ,2,0,3.,4.8,132.,4.8,0.,4.8,0.,4.8
1979-07-01 06:25:58.480 ,2,0,1.,4.8,160.,4.8,0.,4.8,0.,4.8
1979-07-01 06:26:03.280 ,2,0,1.,4.8,152.,4.8,0.,4.8,0.,4.8
1979-07-01 06:26:08.080 ,2,0,1.,4.8,144.,4.8,0.,4.8,0.,4.8
1979-07-01 06:26:12.880 ,2,0,2.,4.8,148.,4.8,0.,4.8,0.,4.8
1979-07-01 06:26:17.680 ,2,0,1.,4.8,160.,4.8,0.,4.8,0.,4.8
1979-07-01 06:26:22.480 ,2,0,2.,4.8,136.,4.8,0.,4.8,0.,4.8
1979-07-01 06:26:27.280 ,3,0,1.,4.8,148.,4.8,0.,4.8,0.,4.8
1979-07-01 06:26:32.080 ,3,0,1.,4.8,164.,4.8,0.,4.8,0.,4.8
1979-07-01 06:26:36.880 ,3,0,0.,4.8,156.,4.8,0.,4.8,0.,4.8
1979-07-01 06:26:41.680 ,3,0,0.,4.8,172.,4.8,0.,4.8,0.,4.8
1979-07-01 06:26:46.480 ,3,0,1.,4.8,144.,4.8,0.,4.8,0.,4.8
1979-07-01 06:26:51.280 ,3,0,1.,4.8,164.,4.8,0.,4.8,0.,4.8
1979-07-01 06:26:56.080 ,3,0,1.,4.8,152.,4.8,0.,4.8,0.,4.8
1979-07-01 06:27:00.880 ,3,0,4.,4.8,136.,4.8,0.,4.8,0.,4.8
1979-07-01 06:27:05.680 ,3,0,1.,4.8,128.,4.8,0.,4.8,0.,4.8
1979-07-01 06:27:10.480 ,3,0,1.,4.8,156.,4.8,0.,4.8,0.,4.8
1979-07-01 06:27:15.280 ,4,0,0.,4.8,152.,4.8,0.,4.8,0.,4.8
1979-07-01 06:27:20.080 ,4,0,1.,4.8,156.,4.8,0.,4.8,0.,4.8
1979-07-01 06:27:24.880 ,4,0,2.,4.8,152.,4.8,0.,4.8,0.,4.8
1979-07-01 06:27:29.680 ,4,0,2.,4.8,148.,4.8,0.,4.8,0.,4.8
1979-07-01 06:27:34.480 ,4,0,1.,4.8,152.,4.8,0.,4.8,0.,4.8
1979-07-01 06:27:39.280 ,4,0,0.,4.8,132.,4.8,0.,4.8,0.,4.8
1979-07-01 06:27:44.080 ,4,0,1.,4.8,160.,4.8,0.,4.8,0.,4.8
1979-07-01 06:27:48.880 ,4,0,3.,4.8,152.,4.8,0.,4.8,0.,4.8
1979-07-01 06:27:53.680 ,4,0,2.,4.8,128.,4.8,0.,4.8,0.,4.8
1979-07-01 06:27:58.480 ,4,0,0.,4.8,164.,4.8,0.,4.8,0.,4.8
1979-07-01 06:28:03.280 ,5,0,2.,4.8,140.,4.8,0.,4.8,0.,4.8
1979-07-01 06:28:08.080 ,5,0,1.,4.8,156.,4.8,0.,4.8,0.,4.8
1979-07-01 06:28:12.880 ,5,0,1.,4.8,148.,4.8,0.,4.8,0.,4.8
1979-07-01 06:28:17.680 ,5,0,2.,4.8,144.,4.8,0.,4.8,0.,4.8
1979-07-01 06:28:22.480 ,5,0,0.,4.8,164.,4.8,0.,4.8,0.,4.8
1979-07-01 06:28:27.280 ,5,0,2.,4.8,144.,4.8,0.,4.8,0.,4.8
1979-07-01 06:28:32.080 ,5,0,2.,4.8,168.,4.8,0.,4.8,0.,4.8
1979-07-01 06:28:36.880 ,5,0,2.,4.8,144.,4.8,0.,4.8,0.,4.8
1979-07-01 06:28:41.680 ,5,0,4.,4.8,156.,4.8,0.,4.8,0.,4.8
1979-07-01 06:28:46.480 ,5,0,0.,4.8,136.,4.8,0.,4.8,0.,4.8
1979-07-01 06:28:51.280 ,6,0,2.,4.8,132.,4.8,0.,4.8,0.,4.8
1979-07-01 06:28:56.080 ,6,0,1.,4.8,144.,4.8,0.,4.8,0.,4.8
1979-07-01 06:29:00.880 ,6,0,3.,4.8,132.,4.8,0.,4.8,0.,4.8
1979-07-01 06:29:05.680 ,6,0,2.,4.8,160.,4.8,0.,4.8,0.,4.8
1979-07-01 06:29:10.480 ,6,0,0.,4.8,172.,4.8,0.,4.8,0.,4.8
1979-07-01 06:29:15.280 ,6,0,2.,4.8,152.,4.8,0.,4.8,0.,4.8
1979-07-01 06:29:20.080 ,6,0,0.,4.8,148.,4.8,0.,4.8,0.,4.8
1979-07-01 06:29:24.880 ,6,0,2.,4.8,124.,4.8,0.,4.8,0.,4.8
1979-07-01 06:29:29.680 ,6,0,1.,4.8,148.,4.8,0.,4.8,0.,4.8
1979-07-01 06:29:34.480 ,6,0,2.,4.8,136.,4.8,0.,4.8,0.,4.8
1979-07-01 06:29:39.280 ,7,0,0.,4.8,140.,4.8,0.,4.8,0.,4.8
1979-07-01 06:29:44.080 ,7,0,2.,4.8,140.,4.8,0.,4.8,0.,4.8
1979-07-01 06:29:48.880 ,7,0,0.,4.8,152.,4.8,0.,4.8,0.,4.8
1979-07-01 06:29:53.680 ,7,0,0.,4.8,136.,4.8,0.,4.8,0.,4.8
1979-07-01 06:29:58.480 ,7,0,3.,4.8,116.,4.8,0.,4.8,0.,4.8
1979-07-01 06:30:03.280 ,7,0,1.,4.8,128.,4.8,0.,4.8,0.,4.8
1979-07-01 06:30:08.080 ,7,0,0.,4.8,156.,4.8,0.,4.8,0.,4.8
1979-07-01 06:30:12.880 ,7,0,1.,4.8,164.,4.8,0.,4.8,0.,4.8
1979-07-01 06:30:17.680 ,7,0,0.,4.8,160.,4.8,0.,4.8,0.,4.8
1979-07-01 06:30:22.480 ,7,0,2.,4.8,136.,4.8,0.,4.8,0.,4.8
1979-07-01 06:30:27.280 ,7,0,1.,4.8,144.,4.8,0.,4.8,0.,4.8
1979-07-01 06:30:32.080 ,7,0,2.,4.8,136.,4.8,0.,4.8,0.,4.8
1979-07-01 06:30:36.880 ,7,0,0.,4.8,148.,4.8,0.,4.8,0.,4.8
1979-07-01 06:30:41.680 ,7,0,2.,4.8,144.,4.8,0.,4.8,0.,4.8
1979-07-01 06:30:46.480 ,7,0,0.,4.8,112.,4.8,0.,4.8,0.,4.8
1979-07-01 06:30:51.280 ,7,0,2.,4.8,140.,4.8,0.,4.8,0.,4.8
1979-07-01 06:30:56.080 ,7,0,1.,4.8,140.,4.8,0.,4.8,0.,4.8
1979-07-01 06:31:00.880 ,7,0,0.,4.8,136.,4.8,0.,4.8,0.,4.8
1979-07-01 06:31:05.680 ,7,0,2.,4.8,140.,4.8,0.,4.8,0.,4.8
1979-07-01 06:31:10.480 ,7,0,4.,4.8,160.,4.8,0.,4.8,0.,4.8
1979-07-01 06:31:15.280 ,6,0,1.,4.8,164.,4.8,0.,4.8,0.,4.8
1979-07-01 06:31:20.080 ,6,0,0.,4.8,136.,4.8,0.,4.8,0.,4.8
1979-07-01 06:31:24.880 ,6,0,2.,4.8,156.,4.8,0.,4.8,0.,4.8
1979-07-01 06:31:29.680 ,6,0,1.,4.8,156.,4.8,0.,4.8,0.,4.8
1979-07-01 06:31:34.480 ,6,0,3.,4.8,152.,4.8,0.,4.8,0.,4.8
1979-07-01 06:31:39.280 ,6,0,2.,4.8,152.,4.8,0.,4.8,0.,4.8
1979-07-01 06:31:44.080 ,6,0,1.,4.8,152.,4.8,0.,4.8,0.,4.8
1979-07-01 06:31:48.880 ,6,0,2.,4.8,148.,4.8,0.,4.8,0.,4.8
1979-07-01 06:31:53.680 ,6,0,2.,4.8,176.,4.8,0.,4.8,0.,4.8
1979-07-01 06:31:58.480 ,6,0,0.,4.8,136.,4.8,0.,4.8,0.,4.8
1979-07-01 06:32:03.280 ,5,0,0.,4.8,160.,4.8,0.,4.8,0.,4.8
1979-07-01 06:32:08.080 ,5,0,0.,4.8,132.,4.8,0.,4.8,0.,4.8
1979-07-01 06:32:12.880 ,5,0,1.,4.8,136.,4.8,0.,4.8,0.,4.8